This demonstration page uses our WeatherBlox Daily Observations layout. Learn more.

40.92945, -100.16068

Hourly Observations for January 29, 2018

Temp ( °F °C ) Dew Point ( °F °C ) Humidity (%) Winds ( mph kmh ) Pressure ( in mb ) Visibility ( mi km ) Precip ( " mm )
12:15 am 00:15 Clear 16 -9.1 11 -11.4 84 84 NNE 7 11 30.77 1042 10 16.0934 0 0
12:35 am 00:35 Mostly Cloudy 16 -9 12 -11.2 84 84 WNW 3 6 30.8 1043 10 16.0934 0 0
12:55 am 00:55 Cloudy 17 -8.5 13 -10.8 84 84 WNW 6 9 30.77 1042 10 16.0934 0 0
1:15 am 01:15 Cloudy 18 -8 13 -10.5 82 82 NW 7 11 30.74 1041 10 16.0934 0 0
1:35 am 01:35 Cloudy 18 -7.7 13 -10.5 81 81 W 9 15 30.77 1042 10 16.0934 0 0
1:55 am 01:55 Cloudy 19 -7.5 13 -10.5 79 79 W 8 13 30.77 1042 10 16.0934 0 0
2:15 am 02:15 Cloudy 19 -7.5 13 -10.6 79 79 W 6 9 30.74 1041 10 16.0934 0 0
2:35 am 02:35 Cloudy 19 -7.2 13 -10.4 78 78 WNW 8 13 30.74 1041 10 16.0934 0 0
2:55 am 02:55 Cloudy 19 -7.1 13 -10.3 78 78 WNW 7 11 30.74 1041 10 16.0934 0 0
3:15 am 03:15 Cloudy 19 -7 14 -10 79 79 NW 6 9 30.74 1041 10 16.0934 0 0
3:35 am 03:35 Cloudy 19 -7 14 -9.8 81 81 NW 7 11 30.74 1041 10 16.0934 0 0
3:55 am 03:55 Cloudy 19 -7 14 -10 79 79 WNW 6 9 30.74 1041 10 16.0934 0 0
4:15 am 04:15 Cloudy 19 -7 14 -10 79 79 W 6 9 30.74 1041 10 16.0934 0 0
4:35 am 04:35 Cloudy 19 -7 14 -10.1 79 79 NW 3 6 30.71 1040 10 16.0934 0 0
4:55 am 04:55 Cloudy 20 -6.9 14 -10 79 79 Calm 30.71 1040 10 16.0934 0 0
5:15 am 05:15 Cloudy 19 -7 14 -10 79 79 Calm 30.71 1040 10 16.0934 0 0
5:35 am 05:35 Cloudy 19 -7 14 -9.9 80 80 Calm 30.71 1040 10 16.0934 0 0
5:55 am 05:55 Cloudy 20 -6.9 14 -10 79 79 Calm 30.71 1040 10 16.0934 0 0
6:15 am 06:15 Cloudy 20 -6.7 14 -9.9 78 78 Calm 30.71 1040 10 16.0934 0 0
6:35 am 06:35 Cloudy 20 -6.7 14 -9.9 78 78 Calm 30.71 1040 10 16.0934 0 0
6:55 am 06:55 Cloudy 20 -6.6 15 -9.7 79 79 SE 3 6 30.71 1040 10 16.0934 0 0
7:15 am 07:15 Cloudy 20 -6.4 14 -9.9 76 76 SE 3 6 30.68 1039 10 16.0934 0 0
7:35 am 07:35 Cloudy 20 -6.5 15 -9.6 79 79 SSE 6 9 30.71 1040 10 16.0934 0 0
7:55 am 07:55 Cloudy 21 -6.3 15 -9.5 78 78 SE 6 9 30.68 1039 10 16.0934 0 0
8:15 am 08:15 Cloudy 20 -6.5 15 -9.5 80 80 SSE 5 7 30.71 1040 10 16.0934 0 0
8:35 am 08:35 Cloudy 21 -6.2 16 -9 81 81 SSE 6 9 30.65 1038 10 16.0934 0 0
8:55 am 08:55 Mostly Cloudy 21 -6.1 16 -9 80 80 SE 7 11 30.65 1038 10 16.0934 0 0
9:15 am 09:15 Partly Cloudy 22 -5.6 16 -8.9 78 78 SSE 6 9 30.68 1039 10 16.0934 0 0
9:35 am 09:35 Sunny 23 -5.1 17 -8.6 77 77 S 7 11 30.68 1039 10 16.0934 0 0
9:55 am 09:55 Sunny 24 -4.6 17 -8.5 74 74 SSE 7 11 30.65 1038 10 16.0934 0 0
10:15 am 10:15 Mostly Cloudy 25 -4.1 17 -8.5 72 72 SSE 8 13 30.65 1038 10 16.0934 0 0
10:35 am 10:35 Mostly Cloudy 26 -3.6 17 -8.2 71 71 SSE 5 7 30.68 1039 10 16.0934 0 0
10:55 am 10:55 Mostly Cloudy 26 -3.1 18 -7.6 71 71 SSE 8 13 30.62 1037 10 16.0934 0 0
11:15 am 11:15 Cloudy 27 -2.9 18 -7.6 70 70 SSE 6 9 30.62 1037 10 16.0934 0 0
11:35 am 11:35 Cloudy 28 -2.5 19 -7.3 70 70 SSE 7 11 30.62 1037 10 16.0934 0 0
11:55 am 11:55 Cloudy 28 -2.3 19 -7.3 69 69 S 6 9 30.62 1037 10 16.0934 0 0
12:15 pm 12:15 Cloudy 29 -1.8 19 -7 68 68 S 13 20 30.59 1036 10 16.0934 0 0
12:35 pm 12:35 Cloudy 29 -1.5 20 -6.7 68 68 SSE 9 15 30.53 1034 10 16.0934 0 0
12:55 pm 12:55 Cloudy 30 -1 20 -6.7 66 66 S 10 17 30.53 1034 10 16.0934 0 0
1:15 pm 13:15 Cloudy 29 -1.5 20 -6.7 68 68 S 10 17 30.5 1033 10 16.0934 0 0
1:35 pm 13:35 Cloudy 30 -1 21 -6.1 69 69 S 12 19 30.5 1033 10 16.0934 0 0
1:55 pm 13:55 Cloudy 30 -1 20 -6.5 67 67 S 8 13 30.5 1033 10 16.0934 0 0
2:15 pm 14:15 Cloudy 31 -0.6 20 -6.5 65 65 SSE 8 13 30.5 1033 10 16.0934 0 0
2:35 pm 14:35 Cloudy 31 -0.6 21 -6.2 66 66 S 9 15 30.5 1033 10 16.0934 0 0
2:55 pm 14:55 Cloudy 31 -0.4 21 -5.9 67 67 SSW 12 19 30.5 1033 10 16.0934 0 0
3:15 pm 15:15 Cloudy 31 -0.3 22 -5.8 67 67 S 9 15 30.5 1033 10 16.0934 0 0
3:35 pm 15:35 Cloudy 32 -0.2 22 -5.6 67 67 S 10 17 30.48 1032 10 16.0934 0 0
3:55 pm 15:55 Cloudy 32 -0.1 22 -5.5 67 67 S 9 15 30.48 1032 10 16.0934 0 0
4:15 pm 16:15 Cloudy 32 -0.2 22 -5.6 67 67 SSE 6 9 30.48 1032 10 16.0934 0 0
4:35 pm 16:35 Cloudy 32 -0.2 22 -5.4 68 68 SSE 8 13 30.48 1032 10 16.0934 0 0
4:55 pm 16:55 Cloudy 32 -0.2 22 -5.5 68 68 S 7 11 30.48 1032 10 16.0934 0 0
5:15 pm 17:15 Cloudy 32 -0.2 22 -5.4 68 68 SSE 8 13 30.48 1032 10 16.0934 0 0
5:35 pm 17:35 Mostly Cloudy 31 -0.4 22 -5.5 69 69 SSE 9 15 30.48 1032 10 16.0934 0 0
5:55 pm 17:55 Partly Cloudy 30 -1 22 -5.7 71 71 SSE 6 9 30.48 1032 10 16.0934 0 0
6:15 pm 18:15 Clear 30 -1.3 22 -5.7 72 72 SE 8 13 30.48 1032 10 16.0934 0 0
6:35 pm 18:35 Clear 29 -1.5 22 -5.8 73 73 SSE 7 11 30.45 1031 10 16.0934 0 0
6:55 pm 18:55 Partly Cloudy 29 -1.7 22 -5.7 74 74 SSE 5 7 30.48 1032 10 16.0934 0 0
7:15 pm 19:15 Cloudy 30 -1.2 22 -5.6 72 72 SE 5 7 30.48 1032 10 16.0934 0 0
7:35 pm 19:35 Cloudy 30 -1 22 -5.6 71 71 SE 6 9 30.48 1032 10 16.0934 0 0
7:55 pm 19:55 Cloudy 30 -1.1 22 -5.5 72 72 SSE 8 13 30.48 1032 10 16.0934 0 0
8:15 pm 20:15 Cloudy 30 -1.2 22 -5.7 72 72 SE 9 15 30.45 1031 10 16.0934 0 0
8:35 pm 20:35 Cloudy 30 -1.2 21 -6 70 70 SE 7 11 30.45 1031 10 16.0934 0 0
8:55 pm 20:55 Cloudy 29 -1.6 21 -6.2 71 71 SSE 6 9 30.45 1031 10 16.0934 0 0
9:15 pm 21:15 Partly Cloudy 27 -2.6 21 -6.2 77 77 SSE 6 9 30.48 1032 10 16.0934 0 0
9:35 pm 21:35 Clear 27 -2.8 20 -6.5 76 76 ESE 5 7 30.48 1032 10 16.0934 0 0
9:55 pm 21:55 Clear 27 -2.6 21 -6.3 76 76 SE 6 9 30.48 1032 10 16.0934 0 0
10:15 pm 22:15 Clear 26 -3.2 20 -6.6 78 78 ESE 3 6 30.48 1032 10 16.0934 0 0
10:35 pm 22:35 Clear 26 -3.2 20 -6.5 78 78 ESE 6 9 30.45 1031 10 16.0934 0 0
10:55 pm 22:55 Clear 26 -3.3 20 -6.6 78 78 ESE 6 9 30.45 1031 10 16.0934 0 0
11:15 pm 23:15 Clear 26 -3.2 20 -6.5 78 78 SE 8 13 30.45 1031 10 16.0934 0 0
11:35 pm 23:35 Clear 26 -3.6 20 -6.8 79 79 SE 6 9 30.42 1030 10 16.0934 0 0
11:55 pm 23:55 Clear 25 -3.8 19 -7 79 79 SE 7 11 30.42 1030 10 16.0934 0 0

Powered by AerisWeather